Location: Gro�bocka
(50.8204°N, 11.9702°E)
Time: 02:02:36
(UTC+00:00)

FALCON 9 DEB - Pass Details

Date: 29 October 2020
Orbit: 382 x 399 km, 53.0° (Epoch: 23 November)

Event Time Altitude Azimuth Distance (km) Brightness Sun altitude
Rises 16:41:02 0° 235° (SW) 2,313 8.2 -8.3°
Reaches altitude 10° 16:43:07 10° 230° (SW) 1,455 6.9 -8.7°
Maximum altitude 16:46:18 53° 153° (SSE) 501 3.3 -9.1°
Enters shadow 16:48:55 14° 77° (ENE) 1,226 4.7 -9.6°
